Weather in Cişmichioi

Moldova     45°32′37″N   28°22′54″E
temp.,
°C
wind,
m/s
gust,
m/s
humid.,
%
clouds,
%
prec.,
mm/h
press.,
hPa
HPBL,
m
17 may, mon
mon1700:00+15w45838 0.0 100699
03:00+15w357999 0.0 1006126
06:00+15wsw468698 0.0 1005191
09:00+15wsw5783100 0.0 1006304
12:00+17wnw246981 0.0 1006399
15:00+21w445651 1.3 10051153
18:00+21wsw455010 0.8 10041490
21:00+18ssw336255 0.8 100431
18 may, tue
tue1800:00+16ssw367598 0.0 100492
03:00+15sw498668 0.0 1003320
06:00+14sw6989100 0.0 1003455
09:00+15w478320 0.1 1004360
12:00+20w574622 0.0 10041587
15:00+19wnw574725 0.0 10041123
18:00+14w5976100 3.8 1006581
21:00+12w10157112 3.8 1006640
19 may, wed
wed1900:00+12w8137098 0.0 1007569
03:00+12w7136991 0.0 1008566
06:00+12w5869100 0.0 1008243
09:00+14w51168100 0.0 1010443
12:00+20wnw574564 0.0 10111675
15:00+21sw344688 0.0 1011473
18:00+22e3243100 0.0 1010587
21:00+18ese33547 0.0 101042
20 may, thu
thu2000:00+15se2265100 0.0 101024
03:00+15se1170100 0.0 100927
06:00+14wnw2389100 1.0 1009112
09:00+16se2377100 1.4 1009349
12:00+16wsw2378100 0.4 1009305
15:00+14wsw4590100 5.8 1009300
18:00+14sw458797 0.3 1009292
21:00+13sw4787100 0.3 1010315
21 may, fri
fri2100:00+12sw478854 0.0 1010199
03:00+10w4792100 0.0 1010160
06:00+11wnw3591100 0.0 1011121
09:00+15nnw5678100 0.0 1012776
12:00+17n5667100 0.0 10121063
15:00+18n7757100 0.1 10121104
18:00+17nnw101167100 0.0 1013717
21:00+13n11157295 0.0 1014593